User: anonymous   Login
Location: Betra
(48.4113°N, 8.6634°E)
Time: 17:59:22
(UTC+00:00)
Language:

AQUA - Orbit

View from above orbital plane
View from above orbital plane
View from above satellite
View from above satellite

Ground track
Ground track

The orbit data is extracted from the following two-line orbital elements,

1 27424U 02022A   24196.52432134  .00001726  00000-0  37386-3 0  9997
2 27424  98.3312 146.0002 0002022  63.6708   2.2969 14.59472045180701
Epoch (UTC): 14 July 2024 12:35:01
Eccentricity: 0.0002022
inclination: 98.3312°
perigee height: 693 km
apogee height: 696 km
right ascension of ascending node: 146.0002°
argument of perigee: 63.6708°
revolutions per day: 14.59472045
mean anomaly at epoch: 2.2969°
orbit number at epoch: 18070

The dashed part of the orbit path shows where the satellite is in the earth's shadow,  

DLR